Coolidge Muni, Coolidge, AZ

1:48 AM MST on December 10, 2019 (GMT -0700)
Coolidge Muni, Coolidge

Weather History for KP08 - September, 2019

Change the Weather History Date:

Wednesday, September 18, 2019

  Actual Average (WUND) Record (WUND)
Temperature  
Mean Temperature 86 °F -  
Max Temperature 98 °F - - (-1)
Min Temperature 75 °F - - (-1)
Cooling Degree Days 22    
Growing Degree Days 36 (Base 50)    
Moisture  
Dew Point 50 °F    
Average Humidity 30    
Maximum Humidity 47    
Minimum Humidity 14    
Precipitation  
Precipitation 0.00 in - - ()
Sea Level Pressure  
Sea Level Pressure 29.86 in    
Wind  
Wind Speed 5 mph ()    
Max Wind Speed 14 mph    
Max Gust Speed 16 mph    
Visibility 10.0 miles    
Events      
Averages and records for this station are not official NWS values.
T = Trace of Precipitation, MM = Missing Value Source: Averaged Metar Reports

Daily Weather History Graph

Daily Weather History Graph

Search for Another Location

Airport or City:

Astronomy

Sep. 18, 2019 Rise Set
Actual Time 6:11 AM MST 6:28 PM MST
Civil Twilight 5:46 AM MST 6:52 PM MST
Nautical Twilight 5:17 AM MST 7:21 PM MST
Astronomical Twilight 4:48 AM MST 7:50 PM MST
Moon 9:17 PM MST (9/18) 10:06 AM MST (9/18)
Length of Visible Light 13h 06m
Length of Day
12h 16m
Waning Gibbous, 82% of the Moon is Illuminated
Sep 18
Waning Gibbous
Sep 21
Last Quarter
Sep 28
New
Oct 5
First Quarter
Oct 13
Full

Hourly Weather History & Observations

Time (MST) Temp. Heat Index Dew Point Humidity Pressure Visibility Wind Dir Wind Speed Gust Speed Precip Events Conditions
12:15 AM 80.6 °F 80.3 °F 53.6 °F 39% 29.87 in 10.0 mi SE 8.1 mph - N/A   Clear
12:35 AM 80.6 °F 80.3 °F 53.6 °F 39% 29.87 in 10.0 mi ESE 6.9 mph - N/A   Clear
12:55 AM 78.8 °F - 53.6 °F 42% 29.88 in 10.0 mi SSE 5.8 mph - N/A   Clear
1:15 AM 78.8 °F - 53.6 °F 42% 29.88 in 10.0 mi SSE 4.6 mph - N/A   Clear
1:35 AM 78.8 °F - 53.6 °F 42% 29.88 in 10.0 mi SE 3.5 mph - N/A   Clear
1:55 AM 78.8 °F - 53.6 °F 42% 29.88 in 10.0 mi Calm Calm - N/A   Clear
2:15 AM 78.8 °F - 53.6 °F 42% 29.88 in 10.0 mi NNW 4.6 mph - N/A   Clear
2:35 AM 77.0 °F - 53.6 °F 44% 29.88 in 10.0 mi Calm Calm - N/A   Clear
2:50 AM 77.0 °F - 53.6 °F 44% 29.88 in 10.0 mi Calm Calm - N/A   Clear
3:15 AM 75.2 °F - 53.6 °F 47% 29.88 in 10.0 mi Calm Calm - N/A   Clear
3:35 AM 75.2 °F - 53.6 °F 47% 29.88 in 10.0 mi ESE 4.6 mph - N/A   Clear
3:55 AM 77.0 °F - 53.6 °F 44% 29.88 in 10.0 mi ESE 5.8 mph - N/A   Clear
4:15 AM 75.2 °F - 53.6 °F 47% 29.88 in 10.0 mi ESE 6.9 mph - N/A   Clear
4:35 AM 75.2 °F - 53.6 °F 47% 29.87 in 10.0 mi ESE 6.9 mph - N/A   Clear
4:50 AM 75.2 °F - 53.6 °F 47% 29.88 in 10.0 mi ESE 6.9 mph - N/A   Clear
5:15 AM 77.0 °F - 53.6 °F 44% 29.88 in 10.0 mi ESE 6.9 mph - N/A   Clear
5:35 AM 77.0 °F - 53.6 °F 44% 29.88 in 10.0 mi ESE 5.8 mph - N/A   Clear
5:55 AM 77.0 °F - 53.6 °F 44% 29.89 in 10.0 mi East 3.5 mph - N/A   Clear
6:15 AM 77.0 °F - 53.6 °F 44% 29.89 in 10.0 mi East 5.8 mph - N/A   Clear
6:30 AM 75.2 °F - 53.6 °F 47% 29.90 in 10.0 mi East 8.1 mph - N/A   Clear
6:55 AM 75.2 °F - 53.6 °F 47% 29.91 in 10.0 mi East 5.8 mph - N/A   Clear
7:10 AM 77.0 °F - 53.6 °F 44% 29.91 in 10.0 mi ESE 4.6 mph - N/A   Clear
7:35 AM 80.6 °F 80.3 °F 53.6 °F 39% 29.91 in 10.0 mi Calm Calm - N/A   Clear
7:55 AM 82.4 °F 81.4 °F 53.6 °F 37% 29.92 in 10.0 mi Calm Calm - N/A   Clear
8:15 AM 86.0 °F 84.2 °F 53.6 °F 33% 29.92 in 10.0 mi Calm Calm - N/A   Clear
8:35 AM 87.8 °F 85.7 °F 53.6 °F 31% 29.92 in 10.0 mi Calm Calm - N/A   Clear
8:55 AM 87.8 °F 85.7 °F 53.6 °F 31% 29.93 in 10.0 mi Calm Calm - N/A   Clear
9:10 AM 87.8 °F 86.1 °F 55.4 °F 33% 29.93 in 10.0 mi NW 5.8 mph - N/A   Clear
9:35 AM 89.6 °F 87.7 °F 55.4 °F 31% 29.93 in 10.0 mi Variable 5.8 mph - N/A   Clear
9:55 AM 89.6 °F 88.1 °F 57.2 °F 33% 29.93 in 10.0 mi West 5.8 mph - N/A   Clear
10:15 AM 89.6 °F 87.7 °F 55.4 °F 31% 29.93 in 10.0 mi Variable 5.8 mph - N/A   Clear
10:35 AM 91.4 °F 89.9 °F 57.2 °F 31% 29.93 in 10.0 mi Variable 5.8 mph - N/A   Clear
10:55 AM 91.4 °F 89.4 °F 55.4 °F 29% 29.93 in 10.0 mi Calm Calm - N/A   Clear
11:10 AM 93.2 °F 91.3 °F 55.4 °F 28% 29.92 in 10.0 mi SW 6.9 mph - N/A   Clear
11:35 AM 93.2 °F 91.3 °F 55.4 °F 28% 29.91 in 10.0 mi WSW 8.1 mph - N/A   Clear
11:55 AM 95.0 °F 93.0 °F 55.4 °F 26% 29.90 in 10.0 mi Calm Calm - N/A   Clear
12:15 PM 96.8 °F 95.1 °F 55.4 °F 25% 29.90 in 10.0 mi SSW 8.1 mph 15.0 mph N/A   Clear
12:35 PM 96.8 °F - 51.8 °F 22% 29.89 in 10.0 mi SSW 9.2 mph - N/A   Clear
12:55 PM 96.8 °F - 48.2 °F 19% 29.88 in 10.0 mi SW 5.8 mph 16.1 mph N/A   Clear
1:15 PM 96.8 °F - 50.0 °F 20% 29.88 in 10.0 mi Variable 5.8 mph 16.1 mph N/A   Clear
1:35 PM 96.8 °F - 50.0 °F 20% 29.87 in 10.0 mi South 5.8 mph - N/A   Clear
1:55 PM 98.6 °F - 48.2 °F 18% 29.86 in 10.0 mi WSW 13.8 mph - N/A   Clear
2:15 PM 98.6 °F - 50.0 °F 19% 29.85 in 10.0 mi SSW 11.5 mph - N/A   Clear
2:35 PM 98.6 °F - 48.2 °F 18% 29.85 in 10.0 mi West 8.1 mph 15.0 mph N/A   Clear
2:50 PM 98.6 °F - 48.2 °F 18% 29.84 in 10.0 mi WSW 9.2 mph - N/A   Clear
3:15 PM 98.6 °F - 46.4 °F 17% 29.83 in 10.0 mi Variable 5.8 mph 12.7 mph N/A   Clear
3:35 PM 98.6 °F - 46.4 °F 17% 29.82 in 10.0 mi West 6.9 mph - N/A   Clear
3:55 PM 98.6 °F - 42.8 °F 15% 29.82 in 10.0 mi Variable 6.9 mph - N/A   Clear
4:15 PM 98.6 °F - 44.6 °F 16% 29.81 in 10.0 mi Variable 4.6 mph - N/A   Clear
4:35 PM 98.6 °F - 44.6 °F 16% 29.80 in 10.0 mi Variable 6.9 mph 13.8 mph N/A   Clear
4:55 PM 98.6 °F - 42.8 °F 15% 29.80 in 10.0 mi SW 8.1 mph - N/A   Clear
5:15 PM 98.6 °F - 42.8 °F 15% 29.80 in 10.0 mi Variable 4.6 mph - N/A   Clear
5:30 PM 98.6 °F - 42.8 °F 15% 29.80 in 10.0 mi Calm Calm - N/A   Clear
5:50 PM 98.6 °F - 41.0 °F 14% 29.79 in 10.0 mi WSW 5.8 mph - N/A   Clear
6:10 PM 96.8 °F - 41.0 °F 15% 29.79 in 10.0 mi South 3.5 mph - N/A   Clear
6:30 PM 96.8 °F - 39.2 °F 14% 29.79 in 10.0 mi Calm Calm - N/A   Clear
6:50 PM 95.0 °F - 39.2 °F 14% 29.79 in 10.0 mi Calm Calm - N/A   Clear
7:10 PM 93.2 °F - 41.0 °F 16% 29.79 in 10.0 mi Calm Calm - N/A   Clear
7:35 PM 93.2 °F - 41.0 °F 16% 29.80 in 10.0 mi Calm Calm - N/A   Clear
7:55 PM 87.8 °F - 42.8 °F 21% 29.81 in 10.0 mi NW 5.8 mph - N/A   Clear
8:10 PM 89.6 °F - 46.4 °F 22% 29.81 in 10.0 mi NW 6.9 mph - N/A   Clear
8:30 PM 87.8 °F - 48.2 °F 25% 29.81 in 10.0 mi NW 4.6 mph - N/A   Clear
8:55 PM 87.8 °F - 48.2 °F 25% 29.81 in 10.0 mi NW 4.6 mph - N/A   Clear
9:10 PM 86.0 °F - 48.2 °F 27% 29.82 in 10.0 mi Calm Calm - N/A   Clear
9:30 PM 84.2 °F - 46.4 °F 27% 29.82 in 10.0 mi SE 4.6 mph - N/A   Clear
9:55 PM 84.2 °F - 46.4 °F 27% 29.83 in 10.0 mi SSW 10.4 mph - N/A   Clear
10:15 PM 84.2 °F - 50.0 °F 30% 29.83 in 10.0 mi South 5.8 mph - N/A   Clear
10:35 PM 82.4 °F - 50.0 °F 32% 29.83 in 10.0 mi SSE 4.6 mph - N/A   Clear
10:55 PM 82.4 °F - 50.0 °F 32% 29.83 in 10.0 mi SSE 5.8 mph - N/A   Clear
11:15 PM 82.4 °F - 50.0 °F 32% 29.83 in 10.0 mi South 8.1 mph - N/A   Clear
11:35 PM 80.6 °F - 50.0 °F 34% 29.83 in 10.0 mi South 6.9 mph - N/A   Clear
11:50 PM 82.4 °F - 48.2 °F 30% 29.83 in 10.0 mi South 8.1 mph - N/A   Clear